KD4LXC-1 Weather Reports


Display with metric or nautical units.
time (UTC)temp
F
wind
direction
speed
MPH
gust
MPH
rain 1hr
in
rain 24hr
in
rain mn
in
humidity
%
barometer
mb
20260510203407 92 0 0.0 0.0 0.00 0.00 0.00 100 888.8
20260510202158 92 356 0.0 0.0 0.00 0.00 0.00 100 889.1
20260510200949 92 350 0.0 0.0 0.00 0.00 0.00 100 889.1
20260510195740 92 333 0.0 0.0 0.00 0.00 0.00 100 889.0
20260510194531 92 352 0.0 0.0 0.00 0.00 0.00 100 889.0
20260510193322 92 356 0.0 0.0 0.00 0.00 0.00 100 889.2
20260510192113 92 356 0.0 0.0 0.00 0.00 0.00 100 889.1
20260510190904 94 342 0.0 0.0 0.00 0.00 0.00 100 889.0
20260510185655 95 353 0.0 0.0 0.00 0.00 0.00 100 889.4
20260510184446 94 349 0.0 0.0 0.00 0.00 0.00 100 889.7
20260510183237 93 173 0.0 0.0 0.00 0.00 0.00 100 889.5
20260510182028 93 271 0.0 0.0 0.00 0.00 0.00 100 889.7
20260510180819 92 210 0.0 0.0 0.00 0.00 0.00 100 889.7
20260510175610 92 180 0.0 0.0 0.00 0.00 0.00 0 889.8
20260510174404 91 11727 0.0 0.0 0.00 0.00 0.00 1 70.7
20260510174401 91 207 0.0 0.0 0.00 0.00 0.00 1 889.9
20260510173152 91 183 0.0 0.0 0.00 0.00 0.00 2 889.9
20260510171943 90 210 0.0 0.0 0.00 0.00 0.00 4 889.8
20260510170734 89 193 0.0 0.0 0.00 0.00 0.00 6 890.0
20260510165525 89 186 0.0 0.0 0.00 0.00 0.00 7 889.8
20260510164316 88 183 0.0 0.0 0.00 0.00 0.00 9 889.8
20260510163107 87 211 0.0 0.0 0.00 0.00 0.00 11 889.8
20260510161858 86 240 0.0 0.0 0.00 0.00 0.00 12 889.8
20260510160648 85 224 0.0 0.0 0.00 0.00 0.00 14 889.8
20260510155439 84 222 0.0 0.0 0.00 0.00 0.00 16 889.9
20260510154231 83 225 0.0 0.0 0.00 0.00 0.00 17 890.0
20260510153022 82 246 0.0 0.0 0.00 0.00 0.00 18 890.2
20260510151812 81 186 0.0 0.0 0.00 0.00 0.00 20 889.9
20260510150603 80 186 0.0 0.0 0.00 0.00 0.00 22 889.5
20260510145356 79 190 0.0 0.0 0.00 0.00 0.00 24 889.7
20260510144145 78 197 0.0 0.0 0.00 0.00 0.00 25 889.6
20260510142936 77 217 0.0 0.0 0.00 0.00 0.00 27 889.6
20260510141727 76 207 0.0 0.0 0.00 0.00 0.00 28 889.6
20260510140520 75 187 0.0 0.0 0.00 0.00 0.00 30 889.3
20260510135310 74 208 0.0 0.0 0.00 0.00 0.00 31 889.5
20260510134100 73 217 0.0 0.0 0.00 0.00 0.00 32 889.5
20260510132852 73 214 0.0 0.0 0.00 0.00 0.00 33 889.3
20260510131642 72 204 0.0 0.0 0.00 0.00 0.00 34 889.2
20260510130433 71 215 0.0 0.0 0.00 0.00 0.00 35 889.2
20260510125224 70 214 0.0 0.0 0.00 0.00 0.00 36 889.1
20260510124015 70 210 0.0 0.0 0.00 0.00 0.00 36 888.9
20260510122806 69 214 0.0 0.0 0.00 0.00 0.00 37 888.9
20260510121557 69 197 0.0 0.0 0.00 0.00 0.00 37 888.7
20260510120348 69 214 0.0 0.0 0.00 0.00 0.00 37 888.5
20260510115139 69 218 0.0 0.0 0.00 0.00 0.00 37 888.4
20260510113930 69 201 0.0 0.0 0.00 0.00 0.00 38 888.6
20260510112721 69 218 0.0 0.0 0.00 0.00 0.00 38 888.4
20260510111512 69 214 0.0 0.0 0.00 0.00 0.00 39 888.2
20260510110303 69 210 0.0 0.0 0.00 0.00 0.00 38 888.0
20260510105054 69 181 0.0 0.0 0.00 0.00 0.00 38 888.2
20260510103845 69 181 0.0 0.0 0.00 0.00 0.00 38 888.0
20260510102637 68 187 0.0 0.0 0.00 0.00 0.00 38 888.0
20260510101427 68 186 0.0 0.0 0.00 0.00 0.00 38 888.0
20260510100218 68 183 0.0 0.0 0.00 0.00 0.00 38 888.0
20260510095009 69 183 0.0 0.0 0.00 0.00 0.00 38 888.1
20260510093800 69 188 0.0 0.0 0.00 0.00 0.00 38 887.7
20260510092551 69 169 0.0 0.0 0.00 0.00 0.00 37 887.9
20260510091342 70 163 0.0 0.0 0.00 0.00 0.00 37 887.7
20260510090133 70 158 0.0 0.0 0.00 0.00 0.00 37 887.7
20260510084924 70 145 0.0 0.0 0.00 0.00 0.00 36 887.8
20260510083715 70 173 0.0 0.0 0.00 0.00 0.00 36 887.9
20260510082506 70 153 0.0 0.0 0.00 0.00 0.00 36 887.9
20260510081257 70 149 0.0 0.0 0.00 0.00 0.00 36 888.1
20260510080048 70 153 0.0 0.0 0.00 0.00 0.00 36 888.2
20260510074839 70 152 0.0 0.0 0.00 0.00 0.00 36 888.2
20260510072422 70 129 0.0 0.0 0.00 0.00 0.00 36 888.6
20260510071212 70 139 0.0 0.0 0.00 0.00 0.00 35 888.8
20260510070003 71 145 0.0 0.0 0.00 0.00 0.00 35 889.0
20260510064753 71 145 0.0 0.0 0.00 0.00 0.00 34 889.0
20260510063544 71 152 0.0 0.0 0.00 0.00 0.00 33 888.9
20260510062336 71 139 0.0 0.0 0.00 0.00 0.00 32 888.8
20260510061126 72 152 0.0 0.0 0.00 0.00 0.00 31 888.8
20260510055917 72 132 0.0 0.0 0.00 0.00 0.00 30 888.9
20260510054708 72 152 0.0 0.0 0.00 0.00 0.00 29 889.3
20260510053459 72 148 0.0 0.0 0.00 0.00 0.00 28 889.3
20260510052250 73 141 0.0 0.0 0.00 0.00 0.00 27 888.9
20260510051041 73 145 0.0 0.0 0.00 0.00 0.00 25 889.0
20260510045833 73 131 0.0 0.0 0.00 0.00 0.00 23 889.0
20260510044623 74 146 0.0 0.0 0.00 0.00 0.00 22 889.1
20260510043414 74 149 0.0 0.0 0.00 0.00 0.00 20 889.2
20260510042206 75 152 0.0 0.0 0.00 0.00 0.00 19 889.1
20260510040956 75 141 0.0 0.0 0.00 0.00 0.00 17 889.2
20260510035747 75 107 0.0 0.0 0.00 0.00 0.00 16 889.0
20260510034538 75 114 0.0 0.0 0.00 0.00 0.00 14 889.0
20260510033329 76 142 0.0 0.0 0.00 0.00 0.00 13 889.0
20260510032120 76 135 0.0 0.0 0.00 0.00 0.00 13 888.7
20260510030911 77 145 0.0 0.0 0.00 0.00 0.00 12 888.2
20260510025702 77 156 0.0 0.0 0.00 0.00 0.00 11 888.5
20260510024453 77 146 0.0 0.0 0.00 0.00 0.00 10 888.5
20260510023244 78 135 0.0 0.0 0.00 0.00 0.00 9 888.1
20260510022035 79 128 0.0 0.0 0.00 0.00 0.00 9 887.8
20260510020826 79 148 0.0 0.0 0.00 0.00 0.00 8 887.6
20260510015617 80 135 0.0 0.0 0.00 0.00 0.00 7 887.6
20260510014408 81 132 0.0 0.0 0.00 0.00 0.00 6 887.5
20260510013159 82 146 0.0 0.0 0.00 0.00 0.00 5 887.4
20260510011950 83 136 0.0 0.0 0.00 0.00 0.00 5 887.3
20260510010741 84 141 0.0 0.0 0.00 0.00 0.00 4 887.3
20260510005532 84 96 0.0 0.0 0.00 0.00 0.00 4 887.3
20260510004323 85 145 0.0 0.0 0.00 0.00 0.00 3 887.1
20260510003114 85 138 0.0 0.0 0.00 0.00 0.00 3 887.0
20260510001905 86 89 0.0 0.0 0.00 0.00 0.00 2 887.1
20260510000656 86 115 0.0 0.0 0.00 0.00 0.00 2 887.1
20260509235447 87 89 0.0 0.0 0.00 0.00 0.00 1 887.2
20260509234238 87 179 0.0 0.0 0.00 0.00 0.00 1 887.0
20260509233029 88 132 0.0 0.0 0.00 0.00 0.00 1 887.1
20260509231820 88 111 0.0 0.0 0.00 0.00 0.00 0 887.1
20260509230611 89 160 0.0 0.0 0.00 0.00 0.00 0 887.3
20260509225402 89 115 0.0 0.0 0.00 0.00 0.00 0 887.3
20260509224153 89 27 0.0 0.0 0.00 0.00 0.00 100 887.4
20260509222944 90 79 0.0 0.0 0.00 0.00 0.00 100 887.5
20260509221735 91 86 0.0 0.0 0.00 0.00 0.00 100 887.4
20260509220526 91 59 0.0 0.0 0.00 0.00 0.00 100 887.6
20260509215316 92 65 0.0 0.0 0.00 0.00 0.00 100 887.5
20260509214107 93 44 0.0 0.0 0.00 0.00 0.00 0 887.4
20260509212858 93 44 0.0 0.0 0.00 0.00 0.00 0 887.6
20260509211649 93 77 0.0 0.0 0.00 0.00 0.00 0 887.7
20260509210441 94 27 0.0 0.0 0.00 0.00 0.00 0 887.8
20260509205232 94 48 0.0 0.0 0.00 0.00 0.00 1 887.9